Tracking 29892 objects as of 21-Nov-2024
HD Live streaming from Space Station
objects crossing your sky now

STARLINK-2162

Track STARLINK-2162 now!
10-day predictions
STARLINK-2162 is classified as:


NORAD ID: 47748
Int'l Code: 2021-017AC
Perigee: 553.6 km
Apogee: 555.0 km
Inclination: 53.1 °
Period: 95.6 minutes
Semi major axis: 6925 km
RCS: Unknown
Launch date: March 4, 2021
Source: United States (US)
Launch site: AIR FORCE EASTERN TEST RANGE (AFETR)
Your satellite tracking list
Your tracking list is empty




NASA's NSSDC Master Catalog

Two Line Element Set (TLE):
1 47748U 21017AC  24325.94427409  .00001630  00000-0  12825-3 0  9997
2 47748  53.0526 168.3433 0001019 103.6627 256.4475 15.06412608205831
Source of the keplerian elements: AFSPC